IRIDIUM 33 DEB, 34159

Orbit data source: Space-Track

IRIDIUM 33 DEB, 34159 is space debris in LEO originally from a launch on Sun, 14 Sep 1997 UTC launched from the Tyuratam Missile And Space Complex (TTMTR). The debris from Iridium 33, an American commercial communications satellite, has been tracked extensively since its accidental collision with the defunct Russian satellite Cosmos 2251 in 2009. This event, occurring at high speed in low Earth orbit (LEO), generated thousands of pieces of space debris, significantly increasing the risk of further collisions. The Iridium 33 debris cloud has impacted space traffic management and orbital debris mitigation strategies, making it a subject of ongoing study in space situational awareness.

Loading next visibility...
Identifier
34159, 1997-051EN
Orbit
LEO
Country
Flag of USUS
Related business
Manufacturer
Unknown
Mission
Spacecraft
Bus & Motor
Unknown
Mass
Unknown
Launch date (UTC)
1997-09-14 (28 years ago)
Launch vehicle
Unknown
Launch site
Tyuratam Missile And Space Complex (TTMTR)
Object type
Payload
Rocket body
Debris
Shape & HBR
Unknown shape, 0.1 m
Radar Cross Section
Small (<0.1 m²)

Expand to show TLE details & history
Last TLE update: 12 hours ago

TLE from 12 hours ago
0 IRIDIUM 33 DEB
1 34159U 97051EN  26038.00562311  .00001771  00000-0  56881-3 0  9998
2 34159  86.3502  24.2372 0030220 101.3691 259.0905 14.38660063887680
Epoch: 2026-02-07T00:08Z
TLE epoch observation values (Epoch: 2026-02-07T00:08:05.836Z)
Latitude
-0.00002°
Longitude
-114.92247°
Altitude
770.134 km
Speed
7.467 km/s
True Right ascension
01h 36m 56s
True Declination
0° 00' 00"
Sunlit
Object was in daylight at epoch
Visualization orbit readout
Latitude
Unknown
Longitude
Unknown
Altitude
Unknown
Speed
Unknown
Apparent Right ascension
Unknown
Apparent Declination
Unknown
Sunlit
N/A
Visualization observer readout
Local Sidereal Time
14:40:24
Azimuth
Unknown
Elevation
Unknown
Doppler factor
Unknown
Orbital elements
Apogee altitude
781.459 km
Perigee altitude
738.317 km
Semi-major axis
7,138.025 km
Eccentricity
0.00302
Inclination
86.3502°
RAAN
24.2372°
Arg. of periapsis
101.3691°
True anomaly
258.75071°
Mean anomaly
259.0905°
Eccentric anomaly
258.92058°
Mean motion
3.59895 °/min
Orbital period
100.03 mins
BSTAR
0.00056881
Loading maneuver chart data...
Computing Atmospheric mass density...
Loading historical data...
Loading historical data...
Loading historical data...
Loading historical data...
Loading historical data...
Loading historical data...
Loading historical data...

Documentation

Showing up to 5 results
|